Location: Unspecified
(0.0000°N, 0.0000°E)
Time: 10:51:04
(UTC+02:00)

Amateur Radio Satellites - All Passes

Search period start: 24 June 2017 10:21
Search period end: 25 June 2017 10:21
Location: Unspecified, 0.0000°N, 0.0000°E

Satellite Date Start Highest point End Downlink Frequencies (MHz)
Time Altitude Azimuth
Oscar 11 24 Jun 10:25:19 10:29:36 82° 103° (ESE) 10:33:54 .
ZACube-1 24 Jun 10:30:00 10:34:11 51° 282° (WNW) 10:38:18 437.345
UWE-3 24 Jun 10:31:34 10:35:07 24° 282° (WNW) 10:38:36 435.000/436.395/437.385
O/OREOS (USA 219) 24 Jun 10:42:26 10:46:37 41° 255° (WSW) 10:50:51 437.305
EO-88 24 Jun 10:45:59 10:47:49 13° 102° (ESE) 10:49:39 145.990 - 145.960
AAUSAT CUBESAT 2 24 Jun 10:46:04 10:48:06 13° 281° (WNW) 10:50:10 437.432
HO-68 24 Jun 10:51:00 10:51:36 10° 286° (WNW) 10:52:14 435.675
TIGRISAT 24 Jun 10:52:38 10:55:25 16° 77° (ENE) 10:58:15 435.000
DELFI C3 24 Jun 10:52:39 10:56:12 32° 102° (ESE) 10:59:47 145.870
M-CUBED/EXP-1 PRIME 24 Jun 11:10:17 11:14:02 80° 255° (WSW) 11:17:30 437.505
PRISM 24 Jun 11:16:22 11:20:14 40° 78° (ENE) 11:24:02 437.425
UNISAT 6 24 Jun 11:32:31 11:36:55 70° 79° (E) 11:41:24 437.425
YUBILEINY 24 Jun 11:36:18 11:45:01 71° 267° (W) 11:53:42 435.215
SRMSAT 24 Jun 11:36:55 11:42:11 31° 161° (SSE) 11:47:28 437.500
RS-15 24 Jun 11:39:00 11:43:58 14° 247° (WSW) 11:48:52 29.354- 29.394
JUGNU 24 Jun 11:44:31 11:50:20 55° 339° (NNW) 11:56:09 437.505
FO-29 24 Jun 11:45:14 11:50:30 69° 258° (WSW) 11:56:14 435.910
EO-88 24 Jun 12:19:01 12:21:13 15° 281° (WNW) 12:23:25 145.990 - 145.960
TIGRISAT 24 Jun 12:28:27 12:31:50 22° 259° (WSW) 12:35:15 435.000
ESTCUBE 1 24 Jun 12:28:43 12:32:14 23° 102° (ESE) 12:35:47 437.505/2401.250
AIST 2D 24 Jun 12:38:27 12:41:47 37° 79° (E) 12:45:05 435.315
PCSat 24 Jun 12:41:31 12:46:54 73° 289° (WNW) 12:52:17 145.827
POLYITAN 1 24 Jun 12:43:20 12:46:07 17° 78° (ENE) 12:48:53 437.675
LO-87 24 Jun 12:46:00 12:49:38 87° 275° (W) 12:53:16 145.935 - 145.965
QB50P2 24 Jun 12:53:15 12:56:50 27° 78° (ENE) 13:00:24 145.880/145.840
SPROUT 24 Jun 13:12:49 13:15:22 15° 102° (ESE) 13:17:54 437.525
EO-79 24 Jun 13:17:47 13:21:56 56° 78° (ENE) 13:26:04 145.935-145.965
SRMSAT 24 Jun 13:25:28 13:31:31 83° 158° (SSE) 13:37:32 437.500
DUCHIFAT 1 24 Jun 13:33:47 13:37:58 75° 78° (ENE) 13:42:09 145.980
JUGNU 24 Jun 13:35:04 13:39:37 22° 344° (NNW) 13:44:10 437.505
NANOSAT C BR1 24 Jun 13:41:22 13:45:33 71° 258° (WSW) 13:49:45 145.865
ESTCUBE 1 24 Jun 14:06:07 14:08:46 16° 282° (WNW) 14:11:26 437.505/2401.250
VELOX 1 24 Jun 14:13:08 14:17:32 75° 283° (WNW) 14:22:00 145.980
POLYITAN 1 24 Jun 14:18:41 14:21:37 18° 258° (WSW) 14:24:33 437.675
50 SAT 24 Jun 14:20:21 14:23:40 51° 101° (E) 14:27:02 437.505
QB50P2 24 Jun 14:30:58 14:32:20 11° 258° (WSW) 14:33:41 145.880/145.840
SO-50 24 Jun 14:34:31 14:39:11 85° 115° (ESE) 14:43:46 436.795
DX 1 24 Jun 14:38:08 14:42:25 56° 102° (ESE) 14:46:44 434.975-435.025
SPROUT 24 Jun 14:47:46 14:50:59 21° 282° (WNW) 14:54:13 437.525
BUGSAT 1 24 Jun 14:50:50 14:54:34 36° 258° (WSW) 14:58:19 437.445
UKube-1 24 Jun 14:58:36 15:02:53 67° 103° (ESE) 15:07:11 .
Oscar 19 24 Jun 15:01:24 15:06:34 69° 78° (ENE) 15:11:42 437.125/150
SRMSAT 24 Jun 15:15:18 15:20:47 36° 340° (NNW) 15:26:15 437.500
JUGNU 24 Jun 15:27:23 15:29:27 12° 352° (N) 15:31:31 437.505
AO-7 24 Jun 15:36:00 15:36:37 10° 72° (ENE) 15:37:14 .
ITUPSAT 1 24 Jun 15:41:01 15:41:59 11° 103° (ESE) 15:42:58 437.325
Gurwin Techsat 1B 24 Jun 15:42:01 15:47:19 73° 258° (WSW) 15:52:36 435.225
BEESAT 24 Jun 15:50:13 15:53:03 16° 103° (ESE) 15:55:52 436.000
SRMSAT 24 Jun 17:06:49 17:10:26 16° 347° (NNW) 17:14:03 437.500
MOZHAYETS 4 24 Jun 17:10:01 17:14:32 75° 282° (WNW) 17:19:05
ITAMSAT 1 24 Jun 17:14:35 17:19:46 77° 257° (WSW) 17:24:56 435.822/435.867
ITUPSAT 1 24 Jun 17:15:09 17:19:32 37° 282° (WNW) 17:23:55 437.325
JUGNU 24 Jun 17:19:29 17:19:41 10° 3° (N) 17:19:52 437.505
AO-7 24 Jun 17:20:34 17:28:53 85° 254° (WSW) 17:37:12 .
BEESAT 24 Jun 17:26:36 17:30:32 26° 282° (WNW) 17:34:29 436.000
CUBESAT XI-V 24 Jun 17:47:11 17:51:25 37° 102° (ESE) 17:55:42 437.345
KKS-1 24 Jun 18:54:35 18:58:44 38° 282° (WNW) 19:02:54 437.445
XW-2C 24 Jun 18:56:35 18:58:13 12° 79° (ENE) 18:59:49 145.795 - 145.815
JUGNU 24 Jun 19:06:11 19:09:44 16° 13° (NNE) 19:13:16 437.505
DOVE 4 24 Jun 19:08:06 19:12:16 58° 79° (ENE) 19:16:18 437.250
Tancredo 1 24 Jun 19:10:27 19:13:28 75° 57° (ENE) 19:16:28 437.200
ISS 24 Jun 19:13:05 19:15:48 24° 55° (NE) 19:18:31 437.550
KAITUO 1B 24 Jun 19:13:32 19:15:58 16° 79° (E) 19:18:22 145.475/437.950
STARS 24 Jun 19:28:22 19:32:29 39° 282° (WNW) 19:36:36 437.465
CUTE-I 24 Jun 19:47:08 19:52:23 62° 77° (ENE) 19:57:36 437.470
NUDT-PHONESAT 24 Jun 19:49:57 19:53:41 64° 79° (E) 19:57:24 437.300
XW-2F 24 Jun 20:01:02 20:04:48 58° 259° (W) 20:08:34 145.980 - 146.000
XW-2D 24 Jun 20:04:05 20:07:48 46° 259° (W) 20:11:29 145.860 - 145.880
AO-85 24 Jun 20:10:38 20:14:37 28° 113° (ESE) 20:18:21 145.980
LilacSat-2 24 Jun 20:10:47 20:14:20 35° 258° (WSW) 20:17:53 437.200
XW-2B 24 Jun 20:13:13 20:16:44 35° 259° (WSW) 20:20:15 145.730 - 145.750
SEEDS 24 Jun 20:20:27 20:21:23 11° 79° (ENE) 20:22:19 437.485
XW-2C 24 Jun 20:29:17 20:32:07 20° 259° (WSW) 20:34:58 145.795 - 145.815
CUBEBUG 2 24 Jun 20:31:27 20:33:09 12° 77° (ENE) 20:34:53 437.445
CUTE 1.7 + AOD 2 24 Jun 20:32:20 20:36:09 31° 79° (ENE) 20:39:55 437.475
KAITUO 1B 24 Jun 20:47:32 20:49:41 15° 258° (WSW) 20:51:50 145.475/437.950
HO-68 24 Jun 20:48:48 20:55:54 63° 76° (ENE) 21:02:58 435.675
SRMSAT 24 Jun 20:49:12 20:51:00 11° 7° (N) 20:52:47 437.500
JUGNU 24 Jun 20:53:51 20:59:15 35° 19° (NNE) 21:04:37 437.505
BEESAT 3 24 Jun 20:59:42 21:03:30 58° 111° (ESE) 21:07:20 437.485
RS-15 24 Jun 21:01:16 21:12:47 70° 110° (ESE) 21:24:49 29.354- 29.394
XW-2A 24 Jun 21:01:18 21:04:40 59° 79° (E) 21:08:02 145.665 - 145.685
STRAND 1 24 Jun 21:02:16 21:07:23 79° 103° (ESE) 21:12:31 437.568
UWE-3 24 Jun 21:06:24 21:09:39 20° 78° (ENE) 21:12:57 435.000/436.395/437.385
AAUSAT CUBESAT 2 24 Jun 21:13:01 21:16:24 24° 79° (E) 21:19:46 437.432
NO-84 24 Jun 21:15:41 21:18:57 86° 300° (WNW) 21:22:32 435.350 FM
O/OREOS (USA 219) 24 Jun 21:16:06 21:18:36 14° 105° (ESE) 21:21:06 437.305
AO-85 24 Jun 21:52:59 21:54:41 12° 290° (WNW) 21:56:22 145.980
SEEDS 24 Jun 21:53:08 21:56:48 28° 259° (WSW) 22:00:26 437.485
BEESAT 2 24 Jun 21:55:34 21:59:26 85° 291° (WNW) 22:03:21 435.950
AO-73 24 Jun 22:05:04 22:09:24 58° 79° (ENE) 22:13:49 145.935
CUBEBUG 2 24 Jun 22:05:44 22:09:28 28° 259° (W) 22:13:17 437.445
YUBILEINY 24 Jun 22:14:53 22:22:04 29° 93° (E) 22:29:13 435.215
Oscar 11 24 Jun 22:33:57 22:38:18 74° 258° (WSW) 22:42:38 .
SRMSAT 24 Jun 22:36:34 22:40:59 21° 16° (NNE) 22:45:24 437.500
ZACube-1 24 Jun 22:39:32 22:43:38 38° 259° (W) 22:47:48 437.345
HO-68 24 Jun 22:40:07 22:43:14 13° 255° (WSW) 22:46:20 435.675
JUGNU 24 Jun 22:42:24 22:48:22 86° 202° (SSW) 22:54:17 437.505
UWE-3 24 Jun 22:42:56 22:45:50 17° 259° (WSW) 22:48:47 435.000/436.395/437.385
AAUSAT CUBESAT 2 24 Jun 22:49:56 22:51:34 12° 258° (WSW) 22:53:13 437.432
DELFI C3 24 Jun 22:50:58 22:54:28 30° 79° (E) 22:57:56 145.870
O/OREOS (USA 219) 24 Jun 22:54:01 22:57:44 24° 284° (WNW) 23:01:26 437.305
TIGRISAT 24 Jun 23:04:58 23:08:38 25° 101° (ESE) 23:12:14 435.000
M-CUBED/EXP-1 PRIME 24 Jun 23:07:50 23:11:59 90° 45° (NE) 23:16:28 437.505
FO-29 24 Jun 23:16:51 23:24:33 68° 103° (ESE) 23:31:37 435.910
RS-15 24 Jun 23:17:17 23:25:03 20° 293° (WNW) 23:33:06 29.354- 29.394
PRISM 24 Jun 23:18:38 23:22:34 44° 102° (ESE) 23:26:32 437.425
PCSat 24 Jun 23:35:44 23:39:55 23° 70° (ENE) 23:44:06 145.827
UNISAT 6 24 Jun 23:45:51 23:50:21 75° 282° (WNW) 23:54:46 437.425
EO-88 25 Jun 00:08:03 00:10:59 23° 259° (WSW) 00:13:54 145.990 - 145.960
YUBILEINY 25 Jun 00:10:41 00:18:27 36° 273° (W) 00:26:15 435.215
SRMSAT 25 Jun 00:24:40 00:30:26 53° 21° (NNE) 00:36:11 437.500
AIST 2D 25 Jun 00:24:58 00:27:40 21° 101° (E) 00:30:22 435.315
JUGNU 25 Jun 00:32:16 00:37:28 32° 199° (SSW) 00:42:39 437.505
LO-87 25 Jun 00:34:03 00:37:31 55° 79° (ENE) 00:40:57 145.935 - 145.965
ESTCUBE 1 25 Jun 00:42:12 00:46:21 36° 78° (ENE) 00:50:27 437.505/2401.250
TIGRISAT 25 Jun 00:42:37 00:45:01 14° 283° (WNW) 00:47:25 435.000
POLYITAN 1 25 Jun 00:49:05 00:52:16 21° 102° (ESE) 00:55:26 437.675
QB50P2 25 Jun 00:59:11 01:03:00 33° 102° (ESE) 01:06:49 145.880/145.840
FO-29 25 Jun 01:05:27 01:08:56 14° 286° (WNW) 01:12:19 435.910
PCSat 25 Jun 01:18:50 01:23:01 23° 250° (WSW) 01:27:15 145.827
SPROUT 25 Jun 01:19:22 01:22:24 19° 78° (ENE) 01:25:25 437.525
EO-79 25 Jun 01:23:41 01:27:54 70° 102° (ESE) 01:32:07 145.935-145.965
DUCHIFAT 1 25 Jun 01:39:01 01:43:14 90° 108° (ESE) 01:47:27 145.980
NANOSAT C BR1 25 Jun 01:46:59 01:51:09 58° 281° (W) 01:55:17 145.865
Oscar 19 25 Jun 02:00:53 02:01:06 10° 103° (ESE) 02:01:19 437.125/150
50 SAT 25 Jun 02:04:07 02:06:58 25° 79° (ENE) 02:09:47 437.505
SRMSAT 25 Jun 02:13:50 02:19:37 55° 201° (SSW) 02:25:26 437.500
JUGNU 25 Jun 02:23:52 02:27:01 15° 192° (SSW) 02:30:09 437.505
VELOX 1 25 Jun 02:24:50 02:29:05 50° 258° (WSW) 02:33:18 145.980
POLYITAN 1 25 Jun 02:25:20 02:27:45 15° 282° (WNW) 02:30:12 437.675
Gurwin Techsat 1B 25 Jun 02:42:09 02:46:03 21° 103° (ESE) 02:49:57 435.225
SO-50 25 Jun 02:47:07 02:51:33 50° 248° (WSW) 02:56:04 436.795
DX 1 25 Jun 02:47:43 02:52:04 79° 76° (ENE) 02:56:21 434.975-435.025
BUGSAT 1 25 Jun 02:53:47 02:57:35 34° 282° (WNW) 03:01:22 437.445
SPROUT 25 Jun 02:55:20 02:58:01 16° 258° (WSW) 03:00:43 437.525
UKube-1 25 Jun 03:06:59 03:11:18 89° 85° (E) 03:15:35 .
Oscar 19 25 Jun 03:35:14 03:40:06 45° 283° (WNW) 03:45:01 437.125/150
AO-7 25 Jun 03:57:16 04:02:54 20° 107° (ESE) 04:08:30 .
ITUPSAT 1 25 Jun 04:00:35 04:04:12 21° 77° (ENE) 04:07:49 437.325
SRMSAT 25 Jun 04:04:32 04:09:03 22° 196° (SSW) 04:13:36 437.500
BEESAT 25 Jun 04:10:42 04:14:52 30° 78° (ENE) 04:19:01 436.000
ITAMSAT 1 25 Jun 04:12:07 04:15:31 18° 103° (ESE) 04:18:56 435.822/435.867
Gurwin Techsat 1B 25 Jun 04:21:26 04:25:42 25° 283° (WNW) 04:30:01 435.225
MOZHAYETS 4 25 Jun 05:26:48 05:31:12 43° 258° (WSW) 05:35:36
KKS-1 25 Jun 05:32:43 05:34:53 13° 78° (ENE) 05:37:02 437.445
ITUPSAT 1 25 Jun 05:38:19 05:41:45 20° 257° (WSW) 05:45:11 437.325
AO-7 25 Jun 05:47:12 05:55:15 54° 286° (WNW) 06:03:19 .
BEESAT 25 Jun 05:49:58 05:52:21 14° 257° (WSW) 05:54:45 436.000
ITAMSAT 1 25 Jun 05:50:16 05:54:42 28° 283° (WNW) 05:59:09 435.822/435.867
SRMSAT 25 Jun 05:57:00 05:59:02 12° 188° (S) 06:01:04 437.500
CUBESAT XI-V 25 Jun 06:05:06 06:09:46 69° 79° (ENE) 06:14:23 437.345
JUGNU 25 Jun 06:05:09 06:07:14 12° 171° (S) 06:09:20 437.505
STARS 25 Jun 06:05:25 06:07:10 12° 77° (ENE) 06:08:55 437.465
Tancredo 1 25 Jun 06:38:15 06:40:57 30° 126° (SE) 06:43:39 437.200
ISS 25 Jun 06:47:47 06:49:45 15° 126° (SE) 06:51:43 437.550
CUTE-I 25 Jun 06:50:13 06:51:53 11° 103° (ESE) 06:53:33 437.470
KAITUO 1B 25 Jun 07:06:45 07:08:05 12° 102° (ESE) 07:09:25 145.475/437.950
KKS-1 25 Jun 07:07:31 07:11:10 25° 258° (WSW) 07:14:48 437.445
DOVE 4 25 Jun 07:27:11 07:32:21 73° 281° (WNW) 07:37:40 437.250
STARS 25 Jun 07:39:33 07:43:14 27° 258° (WSW) 07:46:55 437.465
NUDT-PHONESAT 25 Jun 07:41:31 07:44:59 44° 101° (E) 07:48:30 437.300
SRMSAT 25 Jun 07:49:13 07:49:24 10° 177° (S) 07:49:37 437.500
JUGNU 25 Jun 07:52:21 07:56:58 24° 163° (SSE) 08:01:37 437.505
XW-2F 25 Jun 07:54:12 07:57:54 77° 283° (WNW) 08:01:37 145.980 - 146.000
XW-2D 25 Jun 07:57:38 08:01:18 59° 281° (W) 08:05:00 145.860 - 145.880
STRAND 1 25 Jun 07:59:23 08:01:05 12° 77° (ENE) 08:02:46 437.568
LilacSat-2 25 Jun 08:05:00 08:08:34 42° 281° (W) 08:12:08 437.200
XW-2B 25 Jun 08:06:44 08:10:16 43° 281° (W) 08:13:50 145.730 - 145.750
AO-85 25 Jun 08:21:39 08:26:07 54° 69° (ENE) 08:30:57 145.980
XW-2C 25 Jun 08:22:40 08:25:42 24° 281° (W) 08:28:44 145.795 - 145.815
ISS 25 Jun 08:23:58 08:26:02 16° 306° (NW) 08:28:04 437.550
SEEDS 25 Jun 08:24:36 08:26:22 12° 102° (ESE) 08:28:09 437.485
CUTE-I 25 Jun 08:26:32 08:31:37 45° 283° (WNW) 08:36:44 437.470
CUTE 1.7 + AOD 2 25 Jun 08:38:21 08:42:15 38° 102° (ESE) 08:46:10 437.475
KAITUO 1B 25 Jun 08:39:14 08:41:49 18° 281° (W) 08:44:25 145.475/437.950
HO-68 25 Jun 08:40:31 08:47:25 52° 104° (ESE) 08:54:19 435.675
CUBEBUG 2 25 Jun 08:42:37 08:45:44 18° 101° (E) 08:48:47 437.445
XW-2A 25 Jun 08:44:19 08:47:12 27° 101° (E) 08:50:06 145.665 - 145.685
RS-15 25 Jun 08:44:41 08:56:00 60° 69° (ENE) 09:06:45 29.354- 29.394
BEESAT 3 25 Jun 08:51:25 08:55:15 58° 69° (ENE) 08:59:01 437.485
NO-84 25 Jun 08:59:43 09:03:42 80° 58° (ENE) 09:07:23 435.350 FM
ZACube-1 25 Jun 09:16:03 09:17:32 12° 101° (ESE) 09:19:00 437.345
AAUSAT CUBESAT 2 25 Jun 09:16:09 09:19:38 27° 102° (ESE) 09:23:08 437.432
UWE-3 25 Jun 09:17:12 09:20:58 28° 101° (E) 09:24:40 435.000/436.395/437.385
O/OREOS (USA 219) 25 Jun 09:25:55 09:29:29 24° 76° (ENE) 09:33:04 437.305
STRAND 1 25 Jun 09:35:12 09:39:58 40° 257° (WSW) 09:44:44 437.568
SRMSAT 25 Jun 09:36:03 09:39:38 16° 167° (SSE) 09:43:14 437.500
JUGNU 25 Jun 09:40:23 09:46:11 61° 159° (SSE) 09:52:03 437.505
BEESAT 2 25 Jun 09:48:30 09:52:29 81° 246° (WSW) 09:56:24 435.950
SEEDS 25 Jun 09:58:26 10:01:46 24° 281° (WNW) 10:05:09 437.485
